Location: Newark
(25.6108°S, 54.5803°W)
Time: 14:43:52
(UTC+00:00)

Vanguard 2 - All Passes

Search period start: 31 October 2020 00:00
Search period end: 10 November 2020 00:00
Orbit: 554 x 2937 km, 32.9° (Epoch: 31 October)

Date Brightness Start Highest point End Pass type
(mag) Time Alt. Az. Time Alt. Az. Time Alt. Az.
31 Oct - 05:35:16 10° N 05:41:54 14° NNE 05:47:28 10° ENE visible
31 Oct - 07:41:50 10° NW 07:53:14 41° NNE 08:00:24 10° E visible
31 Oct - 09:53:34 10° WNW 10:02:59 82° SSW 10:08:35 10° ESE daylight
31 Oct - 12:06:24 10° WSW 12:12:01 37° S 12:16:06 10° ESE daylight
31 Oct - 14:16:48 10° WSW 14:20:58 46° SSE 14:24:51 10° E daylight
31 Oct - 16:25:23 10° W 16:29:08 37° NNW 16:33:42 10° NE daylight
01 Nov - 05:50:17 10° NNW 06:00:18 22° NNE 06:07:52 10° ENE visible
01 Nov - 07:59:16 10° NW 08:11:21 54° NNE 08:18:36 10° ESE visible
01 Nov - 10:11:57 10° W 10:20:58 65° SSW 10:26:25 10° ESE daylight
01 Nov - 12:24:47 10° WSW 12:30:09 35° S 12:34:07 10° ESE daylight
01 Nov - 14:34:43 10° WSW 14:38:57 67° SSE 14:42:59 10° ENE daylight
01 Nov - 16:43:49 10° W 16:47:02 22° NNW 16:50:49 10° NNE daylight
02 Nov - 06:06:29 10° NNW 06:18:36 30° NNE 06:27:06 10° E visible
02 Nov - 08:17:03 10° NW 08:29:25 71° NNE 08:36:37 10° ESE visible
02 Nov - 10:30:29 10° W 10:39:00 53° SSW 10:44:16 10° ESE daylight
02 Nov - 12:43:03 10° WSW 12:48:18 38° S 12:52:13 10° ESE daylight
02 Nov - 14:52:39 10° WSW 14:56:51 78° NNW 15:00:56 10° ENE daylight
02 Nov - 17:03:06 10° NW 17:04:58 12° NNW 17:07:00 10° N daylight
03 Nov - 04:17:41 10° N 04:24:49 14° NNE 04:31:03 10° ENE visible
03 Nov - 06:23:17 10° NNW 06:36:49 40° NNE 06:45:45 10° E visible
03 Nov - 08:35:09 10° WNW 08:47:27 88° NNE 08:54:32 10° ESE daylight
03 Nov - 10:49:04 10° W 10:57:05 46° SSW 11:02:09 10° ESE daylight
03 Nov - 13:01:11 10° WSW 13:06:25 44° S 13:10:21 10° E daylight
03 Nov - 15:10:43 10° WSW 15:14:41 45° NNW 15:18:37 10° NE daylight
04 Nov - 04:32:17 10° N 04:43:13 21° NNE 04:52:04 10° ENE visible
04 Nov - 06:40:33 10° NW 06:54:59 52° NNE 07:04:04 10° ESE visible
04 Nov - 08:53:30 10° WNW 09:05:28 76° SSW 09:12:24 10° ESE daylight
04 Nov - 11:07:38 10° WSW 11:15:13 43° S 11:20:07 10° ESE daylight
04 Nov - 13:19:14 10° WSW 13:24:27 58° SSE 13:28:27 10° E daylight
04 Nov - 15:29:03 10° W 15:32:28 26° NNW 15:35:56 10° NNE daylight
05 Nov - 04:48:11 10° NNW 05:01:30 29° NNE 05:11:38 10° E visible
05 Nov - 06:58:12 10° NW 07:13:06 66° NNE 07:22:11 10° ESE visible
05 Nov - 09:12:03 10° W 09:23:33 65° SSW 09:30:16 10° ESE daylight
05 Nov - 11:26:07 10° WSW 11:33:24 43° S 11:38:09 10° ESE daylight
05 Nov - 13:37:15 10° WSW 13:42:26 83° SSE 13:46:26 10° ENE daylight
05 Nov - 15:47:59 10° WNW 15:50:14 14° NNW 15:52:31 10° N daylight
06 Nov - 03:01:19 10° NNE 03:07:16 12° NE 03:12:51 10° ENE visible
06 Nov - 05:04:46 10° NNW 05:19:42 38° NNE 05:30:31 10° E visible
06 Nov - 07:16:09 10° WNW 07:31:11 81° NNE 07:40:10 10° ESE visible
06 Nov - 09:30:42 10° W 09:41:40 56° SSW 09:48:09 10° ESE daylight
06 Nov - 11:44:28 10° WSW 11:51:35 47° S 11:56:14 10° E daylight
06 Nov - 13:55:20 10° WSW 14:00:17 62° NNW 14:04:14 10° NE daylight
07 Nov - 03:14:55 10° N 03:25:38 19° NE 03:35:06 10° ENE visible
07 Nov - 05:21:50 10° NW 05:37:52 49° NNE 05:49:00 10° E visible
07 Nov - 07:34:24 10° WNW 07:49:16 86° SSW 07:58:05 10° ESE visible
07 Nov - 09:49:24 10° W 09:59:51 52° S 10:06:06 10° ESE daylight
07 Nov - 12:02:42 10° WSW 12:09:43 56° SSE 12:14:19 10° E daylight
07 Nov - 14:13:34 10° W 14:18:02 36° NNW 14:21:43 10° NE daylight
08 Nov - 03:30:26 10° NNW 03:43:50 27° NE 03:55:13 10° E visible
08 Nov - 05:39:17 10° NW 05:55:58 61° NNE 06:07:13 10° ESE visible
08 Nov - 07:52:53 10° WNW 08:07:24 74° SSW 08:15:59 10° ESE visible
08 Nov - 10:08:03 10° WSW 10:18:05 50° S 10:24:07 10° ESE daylight
08 Nov - 12:20:51 10° WSW 12:27:47 72° SSE 12:32:19 10° ENE daylight
08 Nov - 14:32:09 10° W 14:35:40 21° NW 14:38:45 10° NNE daylight
09 Nov - 03:46:45 10° NNW 04:01:58 35° NE 04:14:27 10° E visible
09 Nov - 05:57:04 10° NW 06:14:06 75° NNE 06:25:18 10° ESE visible
09 Nov - 08:11:32 10° W 08:25:35 65° SSW 08:33:55 10° ESE visible
09 Nov - 10:26:36 10° WSW 10:36:20 52° S 10:42:12 10° E daylight
09 Nov - 12:39:00 10° WSW 12:45:44 81° NNW 12:50:11 10° ENE daylight
09 Nov - 14:51:51 10° WNW 14:53:16 11° NW 14:54:35 10° NNW daylight
